Location: Bucquoy
(50.1391°N, 2.7097°E)
Time: 09:17:37
(UTC+00:00)

CZ-4 R/B - Pass Details

Date: 06 May 2021
Orbit: 680 x 753 km, 98.5° (Epoch: 21 June)

Event Time Altitude Azimuth Distance (km) Brightness Sun altitude
Rises 01:14:17 0° 12° (NNE) 3,191 8.7 -20.5°
Reaches altitude 10° 01:16:36 10° 9° (N) 2,254 7.5 -20.4°
Maximum altitude 01:21:30 64° 290° (WNW) 808 4.0 -20.0°
Enters shadow 01:23:03 41° 226° (SW) 1,044 4.2 -19.9°
